| time (UTC) | temp F | wind direction | speed MPH | gust MPH | rain 1hr in | rain 24hr in | rain mn in | humidity % | barometer mb |
| 20260903151037 | 87 | 253 | 7.0 | 12.0 | 0.00 | 0.00 | 0.00 | 36 | 1013.3 |
| 20260903150522 | 88 | 297 | 6.0 | 12.0 | 0.00 | 0.00 | 0.00 | 35 | 1013.4 |
| 20260903144521 | 89 | 262 | 7.0 | 14.0 | 0.00 | 0.00 | 0.00 | 30 | 1013.5 |
| 20260903143520 | 89 | 183 | 11.0 | 17.0 | 0.00 | 0.00 | 0.00 | 29 | 1013.5 |
| 20260903143037 | 89 | 277 | 8.0 | 14.0 | 0.00 | 0.00 | 0.00 | 28 | 1013.6 |
| 20260903141522 | 89 | 231 | 7.0 | 17.0 | 0.00 | 0.00 | 0.00 | 27 | 1013.7 |
| 20260903141037 | 89 | 215 | 9.0 | 15.0 | 0.00 | 0.00 | 0.00 | 27 | 1013.8 |
| 20260903140520 | 89 | 256 | 10.0 | 18.0 | 0.00 | 0.00 | 0.00 | 27 | 1013.7 |
| 20260903140022 | 89 | 228 | 11.0 | 20.0 | 0.00 | 0.00 | 0.00 | 27 | 1013.6 |
| 20260903135037 | 89 | 227 | 9.0 | 18.0 | 0.00 | 0.00 | 0.00 | 28 | 1013.8 |
| 20260903134038 | 89 | 241 | 11.0 | 20.0 | 0.00 | 0.00 | 0.00 | 29 | 1013.8 |
| 20260903133037 | 89 | 245 | 10.0 | 20.0 | 0.00 | 0.00 | 0.00 | 31 | 1013.8 |
| 20260903132523 | 89 | 256 | 12.0 | 20.0 | 0.00 | 0.00 | 0.00 | 32 | 1013.9 |
| 20260903131525 | 89 | 262 | 14.0 | 22.0 | 0.00 | 0.00 | 0.00 | 32 | 1014.0 |
| 20260903125521 | 90 | 224 | 9.0 | 16.0 | 0.00 | 0.00 | 0.00 | 32 | 1014.2 |
| 20260903125037 | 90 | 240 | 9.0 | 18.0 | 0.00 | 0.00 | 0.00 | 32 | 1014.2 |
| 20260903124522 | 90 | 282 | 10.0 | 20.0 | 0.00 | 0.00 | 0.00 | 30 | 1014.3 |
| 20260903120520 | 90 | 269 | 9.0 | 16.0 | 0.00 | 0.00 | 0.00 | 34 | 1014.6 |
| 20260903120020 | 90 | 226 | 10.0 | 20.0 | 0.00 | 0.00 | 0.00 | 32 | 1014.6 |
| 20260903115036 | 91 | 268 | 12.0 | 21.0 | 0.00 | 0.00 | 0.00 | 31 | 1014.7 |
| 20260903114036 | 91 | 278 | 6.0 | 12.0 | 0.00 | 0.00 | 0.00 | 28 | 1014.5 |
| 20260903112520 | 91 | 211 | 7.0 | 17.0 | 0.00 | 0.00 | 0.00 | 28 | 1014.6 |
| 20260903112037 | 92 | 237 | 9.0 | 16.0 | 0.00 | 0.00 | 0.00 | 26 | 1014.7 |
| 20260903111520 | 92 | 163 | 7.0 | 15.0 | 0.00 | 0.00 | 0.00 | 26 | 1014.7 |
| 20260903110521 | 92 | 262 | 7.0 | 14.0 | 0.00 | 0.00 | 0.00 | 24 | 1014.7 |
| 20260903110023 | 91 | 281 | 3.0 | 6.0 | 0.00 | 0.00 | 0.00 | 24 | 1014.8 |
| 20260903104038 | 90 | 243 | 6.0 | 12.0 | 0.00 | 0.00 | 0.00 | 25 | 1015.0 |
| 20260903100020 | 89 | 218 | 6.0 | 12.0 | 0.00 | 0.00 | 0.00 | 25 | 1015.8 |
| 20260903094521 | 88 | 49 | 2.0 | 3.0 | 0.00 | 0.00 | 0.00 | 26 | 1016.0 |
| 20260903092523 | 88 | 110 | 3.0 | 6.0 | 0.00 | 0.00 | 0.00 | 26 | 1016.2 |
| 20260903092036 | 88 | 22 | 1.0 | 3.0 | 0.00 | 0.00 | 0.00 | 26 | 1016.3 |
| 20260903090520 | 87 | 17 | 5.0 | 8.0 | 0.00 | 0.00 | 0.00 | 26 | 1016.1 |
| 20260903084520 | 87 | 60 | 3.0 | 6.0 | 0.00 | 0.00 | 0.00 | 26 | 1016.2 |
| 20260903082037 | 85 | 166 | 3.0 | 8.0 | 0.00 | 0.00 | 0.00 | 30 | 1016.2 |
| 20260903080020 | 84 | 154 | 2.0 | 5.0 | 0.00 | 0.00 | 0.00 | 30 | 1016.2 |
| 20260903073520 | 84 | 120 | 2.0 | 3.0 | 0.00 | 0.00 | 0.00 | 30 | 1016.1 |
| 20260903073037 | 83 | 150 | 1.0 | 2.0 | 0.00 | 0.00 | 0.00 | 30 | 1016.2 |
| 20260903071521 | 83 | 195 | 1.0 | 3.0 | 0.00 | 0.00 | 0.00 | 31 | 1016.1 |
| 20260903064521 | 80 | 170 | 1.0 | 3.0 | 0.00 | 0.00 | 0.00 | 32 | 1016.2 |
| 20260903063520 | 79 | 195 | 2.0 | 5.0 | 0.00 | 0.00 | 0.00 | 34 | 1016.3 |
| 20260903061519 | 80 | 153 | 1.0 | 3.0 | 0.00 | 0.00 | 0.00 | 31 | 1016.2 |
| 20260903061035 | 80 | 145 | 1.0 | 3.0 | 0.00 | 0.00 | 0.00 | 31 | 1016.3 |
| 20260903060520 | 80 | 111 | 1.0 | 2.0 | 0.00 | 0.00 | 0.00 | 30 | 1016.2 |
| 20260903060020 | 80 | 83 | 0.0 | 3.0 | 0.00 | 0.00 | 0.00 | 31 | 1016.2 |
| 20260903054036 | 80 | 106 | 2.0 | 3.0 | 0.00 | 0.00 | 0.00 | 30 | 1016.1 |
| 20260903053519 | 79 | 81 | 2.0 | 3.0 | 0.00 | 0.00 | 0.00 | 30 | 1016.1 |
| 20260903053033 | 79 | 96 | 2.0 | 3.0 | 0.00 | 0.00 | 0.00 | 31 | 1016.0 |
| 20260903044519 | 75 | 228 | 2.0 | 3.0 | 0.00 | 0.00 | 0.00 | 33 | 1015.8 |
| 20260903044042 | 76 | 235 | 1.0 | 6.0 | 0.00 | 0.00 | 0.00 | 33 | 1015.6 |
| 20260903043035 | 76 | 262 | 3.0 | 6.0 | 0.00 | 0.00 | 0.00 | 31 | 1015.7 |
| 20260903042520 | 77 | 258 | 2.0 | 5.0 | 0.00 | 0.00 | 0.00 | 32 | 1015.7 |
| 20260903042036 | 77 | 295 | 2.0 | 3.0 | 0.00 | 0.00 | 0.00 | 31 | 1015.7 |
| 20260903041520 | 77 | 339 | 0.0 | 2.0 | 0.00 | 0.00 | 0.00 | 31 | 1015.7 |
| 20260903040519 | 77 | 21 | 2.0 | 3.0 | 0.00 | 0.00 | 0.00 | 31 | 1015.7 |
| 20260903040020 | 77 | 31 | 1.0 | 2.0 | 0.00 | 0.00 | 0.00 | 31 | 1015.7 |
| 20260903034027 | 76 | 104 | 1.0 | 2.0 | 0.00 | 0.00 | 0.00 | 31 | 1015.6 |
| 20260903032027 | 76 | 268 | 2.0 | 2.0 | 0.00 | 0.00 | 0.00 | 32 | 1015.7 |
| 20260903030520 | 76 | 354 | 2.0 | 6.0 | 0.00 | 0.00 | 0.00 | 33 | 1015.7 |
| 20260903025520 | 77 | 266 | 2.0 | 6.0 | 0.00 | 0.00 | 0.00 | 32 | 1015.7 |
| 20260903023519 | 77 | 244 | 2.0 | 3.0 | 0.00 | 0.00 | 0.00 | 32 | 1015.9 |
| 20260903021519 | 76 | 269 | 2.0 | 5.0 | 0.00 | 0.00 | 0.00 | 33 | 1015.8 |
| 20260903021027 | 75 | 268 | 1.0 | 3.0 | 0.00 | 0.00 | 0.00 | 34 | 1015.9 |
| 20260903020519 | 75 | 272 | 2.0 | 3.0 | 0.00 | 0.00 | 0.00 | 35 | 1015.9 |
| 20260903020019 | 75 | 256 | 2.0 | 3.0 | 0.00 | 0.00 | 0.00 | 36 | 1015.9 |
| 20260903015519 | 75 | 252 | 2.0 | 3.0 | 0.00 | 0.00 | 0.00 | 38 | 1015.9 |
| 20260903013519 | 74 | 266 | 2.0 | 3.0 | 0.00 | 0.00 | 0.00 | 45 | 1016.0 |
| 20260903013028 | 74 | 282 | 2.0 | 3.0 | 0.00 | 0.00 | 0.00 | 51 | 1016.0 |
| 20260903012518 | 74 | 265 | 1.0 | 3.0 | 0.00 | 0.00 | 0.00 | 54 | 1016.1 |
| 20260903005027 | 73 | 272 | 2.0 | 3.0 | 0.00 | 0.00 | 0.00 | 58 | 1016.4 |
| 20260903004027 | 73 | 293 | 2.0 | 3.0 | 0.00 | 0.00 | 0.00 | 65 | 1016.5 |
| 20260903003519 | 73 | 258 | 2.0 | 5.0 | 0.00 | 0.00 | 0.00 | 67 | 1016.5 |
| 20260903002521 | 73 | 276 | 2.0 | 3.0 | 0.00 | 0.00 | 0.00 | 68 | 1016.5 |
| 20260902235519 | 75 | 281 | 1.0 | 3.0 | 0.00 | 0.00 | 0.00 | 67 | 1016.6 |
| 20260902234519 | 75 | 66 | 1.0 | 3.0 | 0.00 | 0.00 | 0.00 | 69 | 1016.7 |
| 20260902234027 | 75 | 117 | 2.0 | 3.0 | 0.00 | 0.00 | 0.00 | 69 | 1016.7 |
| 20260902232520 | 75 | 293 | 0.0 | 2.0 | 0.00 | 0.00 | 0.00 | 68 | 1017.0 |
| 20260902225027 | 76 | 343 | 1.0 | 3.0 | 0.00 | 0.00 | 0.00 | 67 | 1017.2 |
| 20260902224027 | 76 | 180 | 1.0 | 3.0 | 0.00 | 0.00 | 0.00 | 67 | 1017.3 |
| 20260902223027 | 76 | 77 | 1.0 | 3.0 | 0.00 | 0.00 | 0.00 | 66 | 1017.3 |
| 20260902221027 | 76 | 49 | 2.0 | 3.0 | 0.00 | 0.00 | 0.00 | 66 | 1017.4 |
| 20260902220518 | 76 | 45 | 2.0 | 3.0 | 0.00 | 0.00 | 0.00 | 66 | 1017.4 |
| 20260902220020 | 76 | 72 | 2.0 | 3.0 | 0.00 | 0.00 | 0.00 | 65 | 1017.4 |
| 20260902215519 | 76 | 116 | 2.0 | 3.0 | 0.00 | 0.00 | 0.00 | 65 | 1017.4 |
| 20260902214027 | 77 | 83 | 2.0 | 3.0 | 0.00 | 0.00 | 0.00 | 64 | 1017.4 |
| 20260902213518 | 77 | 62 | 2.0 | 3.0 | 0.00 | 0.00 | 0.00 | 63 | 1017.4 |
| 20260902213028 | 77 | 29 | 1.0 | 2.0 | 0.00 | 0.00 | 0.00 | 62 | 1017.5 |
| 20260902205520 | 77 | 340 | 1.0 | 2.0 | 0.00 | 0.00 | 0.00 | 58 | 1017.4 |
| 20260902204518 | 77 | 54 | 2.0 | 3.0 | 0.00 | 0.00 | 0.00 | 58 | 1017.4 |
| 20260902203519 | 78 | 60 | 2.0 | 5.0 | 0.00 | 0.00 | 0.00 | 57 | 1017.5 |
| 20260902203027 | 78 | 64 | 2.0 | 5.0 | 0.00 | 0.00 | 0.00 | 56 | 1017.4 |
| 20260902201519 | 78 | 58 | 5.0 | 9.0 | 0.00 | 0.00 | 0.00 | 55 | 1017.3 |
| 20260902200518 | 78 | 53 | 2.0 | 6.0 | 0.00 | 0.00 | 0.00 | 53 | 1017.4 |
| 20260902200018 | 78 | 57 | 1.0 | 3.0 | 0.00 | 0.00 | 0.00 | 53 | 1017.4 |
| 20260902195026 | 78 | 73 | 2.0 | 3.0 | 0.00 | 0.00 | 0.00 | 52 | 1017.5 |
| 20260902194026 | 78 | 73 | 1.0 | 3.0 | 0.00 | 0.00 | 0.00 | 52 | 1017.4 |
| 20260902193519 | 78 | 73 | 2.0 | 3.0 | 0.00 | 0.00 | 0.00 | 53 | 1017.4 |
| 20260902191518 | 78 | 59 | 2.0 | 3.0 | 0.00 | 0.00 | 0.00 | 60 | 1017.4 |
| 20260902191027 | 78 | 70 | 2.0 | 3.0 | 0.00 | 0.00 | 0.00 | 61 | 1017.3 |
| 20260902190518 | 78 | 62 | 1.0 | 3.0 | 0.00 | 0.00 | 0.00 | 62 | 1017.2 |
| 20260902190019 | 78 | 81 | 1.0 | 3.0 | 0.00 | 0.00 | 0.00 | 62 | 1017.2 |
| 20260902185027 | 78 | 312 | 1.0 | 2.0 | 0.00 | 0.00 | 0.00 | 62 | 1017.0 |
| 20260902184518 | 78 | 280 | 1.0 | 2.0 | 0.00 | 0.00 | 0.00 | 62 | 1016.9 |
| 20260902183518 | 78 | 268 | 1.0 | 3.0 | 0.00 | 0.00 | 0.00 | 61 | 1016.8 |
| 20260902182029 | 79 | 289 | 3.0 | 7.0 | 0.00 | 0.00 | 0.00 | 60 | 1016.7 |
| 20260902180518 | 79 | 275 | 2.0 | 3.0 | 0.00 | 0.00 | 0.00 | 58 | 1016.4 |
| 20260902175518 | 80 | 286 | 3.0 | 6.0 | 0.00 | 0.00 | 0.00 | 57 | 1016.4 |
| 20260902173519 | 81 | 240 | 3.0 | 9.0 | 0.00 | 0.00 | 0.00 | 52 | 1016.1 |
| 20260902172518 | 81 | 256 | 7.0 | 12.0 | 0.00 | 0.00 | 0.00 | 48 | 1016.2 |
| 20260902171519 | 82 | 222 | 5.0 | 10.0 | 0.00 | 0.00 | 0.00 | 45 | 1016.1 |
| 20260902170019 | 83 | 253 | 5.0 | 12.0 | 0.00 | 0.00 | 0.00 | 41 | 1016.0 |
| 20260902164518 | 84 | 354 | 8.0 | 15.0 | 0.00 | 0.00 | 0.00 | 39 | 1015.9 |
| 20260902162520 | 85 | 231 | 9.0 | 15.0 | 0.00 | 0.00 | 0.00 | 36 | 1016.0 |
| 20260902161519 | 85 | 279 | 7.0 | 13.0 | 0.00 | 0.00 | 0.00 | 37 | 1016.0 |
| 20260902155520 | 86 | 246 | 9.0 | 16.0 | 0.00 | 0.00 | 0.00 | 36 | 1016.1 |
| 20260902154037 | 87 | 252 | 8.0 | 17.0 | 0.00 | 0.00 | 0.00 | 39 | 1016.1 |
| 20260902153036 | 87 | 207 | 10.0 | 17.0 | 0.00 | 0.00 | 0.00 | 40 | 1016.2 |